Location: Gniazdowice
(50.2124°N, 20.2673°E)
Time: 00:01:44
(UTC+00:00)

Cosmos 1378 Rocket - Pass Details

Date: 23 May 2024
Orbit: 599 x 622 km, 82.5° (Epoch: 18 June)

Event Time Altitude Azimuth Distance (km) Brightness Sun altitude
Exits shadow 01:33:10 - 183° (S) 2,310 6.0 -9.0°
Reaches altitude 10° 01:34:05 10° 182° (S) 1,936 5.6 -8.9°
Maximum altitude 01:38:21 75° 98° (E) 627 3.7 -8.5°
Drops below altitude 10° 01:42:40 10° 13° (NNE) 1,956 7.2 -8.0°
Sets 01:44:54 0° 12° (NNE) 2,866 8.1 -7.8°
